Time,TemperatureF,DewpointF,PressureIn,WindDirection,WindDirectionDegrees,WindSpeedMPH,WindSpeedGustMPH,Humidity,HourlyPrecipIn,Conditions,Clouds,dailyrainin,SoftwareType,DateUTC
2013-06-06 00:01:00,53.2,38.0,0.00,SE,124,0.0,0.0,56,0.00,,---,0.00,VWS V13.01,2013-06-06 04:01:00,
2013-06-06 00:02:00,53.2,38.0,0.00,SE,124,0.0,0.0,56,0.00,,---,0.00,VWS V13.01,2013-06-06 04:02:00,
2013-06-06 00:04:00,53.2,38.0,0.00,SE,124,0.0,0.0,56,0.00,,---,0.00,VWS V13.01,2013-06-06 04:04:00,
2013-06-06 00:09:00,53.2,38.0,0.00,SE,124,0.0,0.0,56,0.00,,---,0.00,VWS V13.01,2013-06-06 04:09:00,
2013-06-06 00:14:00,53.2,38.0,0.00,SE,124,0.0,0.0,56,0.00,,---,0.00,VWS V13.01,2013-06-06 04:14:00,
2013-06-06 00:19:00,53.2,38.0,0.00,SE,124,0.0,0.0,56,0.00,,---,0.00,VWS V13.01,2013-06-06 04:19:00,
2013-06-06 00:25:00,53.2,38.9,0.00,SE,124,0.0,0.0,58,0.00,,---,0.00,VWS V13.01,2013-06-06 04:25:00,
2013-06-06 00:30:00,53.2,38.9,0.00,SE,124,0.0,0.0,58,0.00,,---,0.00,VWS V13.01,2013-06-06 04:30:00,
2013-06-06 00:35:00,53.1,39.6,0.00,SE,124,0.0,0.0,60,0.00,,---,0.00,VWS V13.01,2013-06-06 04:35:00,
2013-06-06 00:40:00,53.1,40.0,0.00,SE,124,0.0,0.0,61,0.00,,---,0.00,VWS V13.01,2013-06-06 04:40:00,
2013-06-06 00:45:00,53.1,39.6,0.00,SE,124,0.0,0.0,60,0.00,,---,0.00,VWS V13.01,2013-06-06 04:45:00,
2013-06-06 00:50:00,53.1,40.4,0.00,SE,124,0.0,0.0,62,0.00,,---,0.00,VWS V13.01,2013-06-06 04:50:00,
2013-06-06 00:55:00,53.1,40.0,0.00,SE,124,0.0,0.0,61,0.00,,---,0.00,VWS V13.01,2013-06-06 04:55:00,
2013-06-06 01:01:00,52.9,39.8,0.00,SE,124,0.0,0.0,61,0.00,,---,0.00,VWS V13.01,2013-06-06 05:01:00,
2013-06-06 01:06:00,52.9,40.6,0.00,SE,124,0.0,0.0,63,0.00,,---,0.00,VWS V13.01,2013-06-06 05:06:00,
2013-06-06 01:11:00,52.7,40.9,0.00,SE,124,0.0,0.0,64,0.00,,---,0.00,VWS V13.01,2013-06-06 05:11:00,
2013-06-06 01:16:00,52.5,41.1,0.00,SE,124,0.0,0.0,65,0.00,,---,0.00,VWS V13.01,2013-06-06 05:16:00,
2013-06-06 01:21:00,52.3,40.9,0.00,SE,124,0.0,0.0,65,0.00,,---,0.00,VWS V13.01,2013-06-06 05:21:00,
2013-06-06 01:27:00,52.2,41.2,0.00,SE,124,0.0,0.0,66,0.00,,---,0.00,VWS V13.01,2013-06-06 05:27:00,
2013-06-06 01:32:00,52.0,40.6,0.00,SE,124,0.0,0.0,65,0.00,,---,0.00,VWS V13.01,2013-06-06 05:32:00,
2013-06-06 01:37:00,51.8,41.2,0.00,SE,124,0.0,0.0,67,0.00,,---,0.00,VWS V13.01,2013-06-06 05:37:00,
2013-06-06 01:43:00,51.6,41.8,0.00,SE,124,0.0,0.0,69,0.00,,---,0.00,VWS V13.01,2013-06-06 05:43:00,
2013-06-06 01:48:00,51.6,41.8,0.00,SE,124,0.0,0.0,69,0.00,,---,0.00,VWS V13.01,2013-06-06 05:48:00,
2013-06-06 01:54:00,51.8,42.0,0.00,SE,124,0.0,0.0,69,0.00,,---,0.00,VWS V13.01,2013-06-06 05:54:00,
2013-06-06 01:59:00,52.0,41.4,0.00,SE,124,0.0,0.0,67,0.00,,---,0.00,VWS V13.01,2013-06-06 05:59:00,
2013-06-06 02:04:00,52.2,41.2,0.00,ENE,64,0.0,0.0,66,0.00,,---,0.00,VWS V13.01,2013-06-06 06:04:00,
2013-06-06 02:09:00,52.3,41.3,0.00,ENE,65,0.0,0.0,66,0.00,,---,0.00,VWS V13.01,2013-06-06 06:09:00,
2013-06-06 02:15:00,52.5,40.7,0.00,ENE,64,2.7,4.0,64,0.00,,---,0.00,VWS V13.01,2013-06-06 06:15:00,
2013-06-06 02:20:00,52.7,40.9,0.00,NE,36,0.0,0.0,64,0.00,,---,0.00,VWS V13.01,2013-06-06 06:20:00,
2013-06-06 02:25:00,52.9,41.0,0.00,ENE,61,0.0,3.1,64,0.00,,---,0.00,VWS V13.01,2013-06-06 06:25:00,
2013-06-06 02:30:00,53.1,41.2,0.00,ENE,71,0.0,0.0,64,0.00,,---,0.00,VWS V13.01,2013-06-06 06:30:00,
2013-06-06 02:35:00,53.1,40.8,0.00,ENE,78,0.0,5.4,63,0.00,,---,0.00,VWS V13.01,2013-06-06 06:35:00,
2013-06-06 02:40:00,53.2,41.0,0.00,ENE,69,0.0,0.0,63,0.00,,---,0.00,VWS V13.01,2013-06-06 06:40:00,
2013-06-06 02:45:00,53.4,41.2,0.00,ENE,69,5.4,5.4,63,0.00,,---,0.00,VWS V13.01,2013-06-06 06:45:00,
2013-06-06 02:50:00,53.6,40.9,0.00,ESE,107,4.0,5.4,62,0.00,,---,0.00,VWS V13.01,2013-06-06 06:50:00,
2013-06-06 02:56:00,53.6,40.9,0.00,NE,50,3.1,6.3,62,0.00,,---,0.00,VWS V13.01,2013-06-06 06:56:00,
2013-06-06 03:01:00,54.0,41.2,0.00,ESE,122,4.0,5.8,62,0.00,,---,0.00,VWS V13.01,2013-06-06 07:01:00,
2013-06-06 03:06:00,54.0,41.2,0.00,East,83,4.0,7.6,62,0.00,,---,0.00,VWS V13.01,2013-06-06 07:06:00,
2013-06-06 03:11:00,54.1,41.4,0.00,ENE,67,4.9,4.9,62,0.00,,---,0.00,VWS V13.01,2013-06-06 07:11:00,
2013-06-06 03:16:00,54.1,41.4,0.00,East,79,6.3,7.6,62,0.00,,---,0.00,VWS V13.01,2013-06-06 07:16:00,
2013-06-06 03:21:00,54.3,41.6,0.00,NE,55,4.9,7.6,62,0.00,,---,0.00,VWS V13.01,2013-06-06 07:21:00,
2013-06-06 03:26:00,54.3,41.6,0.00,SE,126,2.7,7.6,62,0.00,,---,0.00,VWS V13.01,2013-06-06 07:26:00,
2013-06-06 03:31:00,54.1,41.8,0.00,East,96,3.6,5.4,63,0.00,,---,0.00,VWS V13.01,2013-06-06 07:31:00,
2013-06-06 03:36:00,54.3,41.6,0.00,ENE,64,2.7,5.8,62,0.00,,---,0.00,VWS V13.01,2013-06-06 07:36:00,
2013-06-06 03:42:00,54.3,42.0,0.00,ENE,66,5.4,6.3,63,0.00,,---,0.00,VWS V13.01,2013-06-06 07:42:00,
2013-06-06 03:47:00,54.3,41.6,0.00,East,89,0.0,6.3,62,0.00,,---,0.00,VWS V13.01,2013-06-06 07:47:00,
2013-06-06 03:52:00,54.3,42.0,0.00,ENE,74,7.6,7.6,63,0.00,,---,0.00,VWS V13.01,2013-06-06 07:52:00,
2013-06-06 03:57:00,54.3,42.0,0.00,East,81,3.6,7.6,63,0.00,,---,0.00,VWS V13.01,2013-06-06 07:57:00,
2013-06-06 04:02:00,54.3,42.0,0.00,East,82,2.7,7.6,63,0.00,,---,0.00,VWS V13.01,2013-06-06 08:02:00,
2013-06-06 04:07:00,54.1,42.2,0.00,ENE,78,5.8,7.6,64,0.00,,---,0.00,VWS V13.01,2013-06-06 08:07:00,
2013-06-06 04:12:00,54.1,42.2,0.00,NE,49,3.6,4.9,64,0.00,,---,0.00,VWS V13.01,2013-06-06 08:12:00,
2013-06-06 04:17:00,54.1,42.2,0.00,ENE,58,3.1,4.9,64,0.00,,---,0.00,VWS V13.01,2013-06-06 08:17:00,
2013-06-06 04:23:00,54.1,42.2,0.00,ESE,123,5.8,5.8,64,0.00,,---,0.00,VWS V13.01,2013-06-06 08:23:00,
2013-06-06 04:28:00,54.1,42.2,0.00,ESE,123,0.0,5.8,64,0.00,,---,0.00,VWS V13.01,2013-06-06 08:28:00,
2013-06-06 04:33:00,54.3,42.4,0.00,East,92,2.2,6.7,64,0.00,,---,0.00,VWS V13.01,2013-06-06 08:33:00,
2013-06-06 04:38:00,54.3,42.4,0.00,ENE,57,2.7,6.7,64,0.00,,---,0.00,VWS V13.01,2013-06-06 08:38:00,
2013-06-06 04:43:00,54.3,42.4,0.00,SE,124,0.0,5.4,64,0.00,,---,0.00,VWS V13.01,2013-06-06 08:43:00,
2013-06-06 04:48:00,54.3,42.4,0.00,SE,133,6.3,6.3,64,0.00,,---,0.00,VWS V13.01,2013-06-06 08:48:00,
2013-06-06 04:53:00,54.3,42.4,0.00,SE,129,3.6,4.5,64,0.00,,---,0.00,VWS V13.01,2013-06-06 08:53:00,
2013-06-06 04:58:00,54.3,42.4,0.00,East,81,2.7,5.8,64,0.00,,---,0.00,VWS V13.01,2013-06-06 08:58:00,
2013-06-06 05:04:00,54.3,42.4,0.00,East,79,3.6,5.8,64,0.00,,---,0.00,VWS V13.01,2013-06-06 09:04:00,
2013-06-06 05:09:00,54.3,42.4,0.00,SSE,152,0.0,5.8,64,0.00,,---,0.00,VWS V13.01,2013-06-06 09:09:00,
2013-06-06 05:14:00,54.3,42.4,0.00,ENE,70,0.0,3.6,64,0.00,,---,0.00,VWS V13.01,2013-06-06 09:14:00,
2013-06-06 05:19:00,54.3,42.4,0.00,East,83,0.0,4.9,64,0.00,,---,0.00,VWS V13.01,2013-06-06 09:19:00,
2013-06-06 05:24:00,54.3,42.4,0.00,ESE,113,0.0,3.6,64,0.00,,---,0.00,VWS V13.01,2013-06-06 09:24:00,
2013-06-06 05:29:00,54.3,42.4,0.00,ESE,106,0.0,5.8,64,0.00,,---,0.00,VWS V13.01,2013-06-06 09:29:00,
2013-06-06 05:34:00,54.3,42.8,0.00,SE,133,0.0,0.0,65,0.00,,---,0.00,VWS V13.01,2013-06-06 09:34:00,
2013-06-06 05:39:00,54.3,42.8,0.00,ESE,117,3.1,6.7,65,0.00,,---,0.00,VWS V13.01,2013-06-06 09:39:00,
2013-06-06 05:45:00,54.3,42.8,0.00,ESE,103,0.0,5.8,65,0.00,,---,0.00,VWS V13.01,2013-06-06 09:45:00,
2013-06-06 05:50:00,54.3,43.2,0.00,NE,39,0.0,0.0,66,0.00,,---,0.00,VWS V13.01,2013-06-06 09:50:00,
2013-06-06 05:55:00,54.1,43.0,0.00,ENE,65,0.0,0.0,66,0.00,,---,0.00,VWS V13.01,2013-06-06 09:55:00,
2013-06-06 06:00:00,54.1,43.4,0.00,ESE,112,0.0,0.0,67,0.00,,---,0.00,VWS V13.01,2013-06-06 10:00:00,
2013-06-06 06:05:00,54.1,43.4,0.00,ENE,70,0.0,4.0,67,0.00,,---,0.00,VWS V13.01,2013-06-06 10:05:00,
2013-06-06 06:10:00,54.0,44.0,0.00,ENE,78,4.0,4.0,69,0.00,,---,0.00,VWS V13.01,2013-06-06 10:10:00,
2013-06-06 06:16:00,53.8,44.6,0.00,NE,50,4.9,4.9,71,0.00,,---,0.00,VWS V13.01,2013-06-06 10:16:00,
2013-06-06 06:21:00,53.4,45.0,0.00,ENE,63,0.0,0.0,73,0.00,,---,0.00,VWS V13.01,2013-06-06 10:21:00,
2013-06-06 06:26:00,53.4,45.3,0.00,NNW,338,0.0,0.0,74,0.00,,---,0.00,VWS V13.01,2013-06-06 10:26:00,
2013-06-06 06:31:00,53.1,45.7,0.00,NE,36,0.0,0.0,76,0.00,,---,0.00,VWS V13.01,2013-06-06 10:31:00,
2013-06-06 06:36:00,53.1,45.7,0.00,NE,42,0.0,0.0,76,0.00,,---,0.00,VWS V13.01,2013-06-06 10:36:00,
2013-06-06 06:42:00,53.1,45.7,0.00,NNE,28,0.0,0.0,76,0.00,,---,0.00,VWS V13.01,2013-06-06 10:42:00,
2013-06-06 06:47:00,52.9,46.2,0.00,North,353,0.0,4.5,78,0.00,,---,0.00,VWS V13.01,2013-06-06 10:47:00,
2013-06-06 06:52:00,52.9,46.5,0.00,ESE,119,0.0,0.0,79,0.00,,---,0.00,VWS V13.01,2013-06-06 10:52:00,
2013-06-06 06:57:00,52.9,46.5,0.00,NNW,338,0.0,0.0,79,0.00,,---,0.00,VWS V13.01,2013-06-06 10:57:00,
2013-06-06 07:02:00,52.9,46.5,0.00,NNW,340,0.0,0.0,79,0.00,,---,0.00,VWS V13.01,2013-06-06 11:02:00,
2013-06-06 07:07:00,52.7,46.7,0.00,NE,47,3.6,5.8,80,0.00,,---,0.00,VWS V13.01,2013-06-06 11:07:00,
2013-06-06 07:12:00,52.3,47.0,0.00,NNW,345,0.0,0.0,82,0.00,,---,0.00,VWS V13.01,2013-06-06 11:12:00,
2013-06-06 07:18:00,52.3,47.7,0.00,NNE,33,3.1,5.8,84,0.00,,---,0.00,VWS V13.01,2013-06-06 11:18:00,
2013-06-06 07:23:00,52.2,47.8,0.00,NNW,348,3.1,5.4,85,0.00,,---,0.00,VWS V13.01,2013-06-06 11:23:00,
2013-06-06 07:28:00,52.2,48.1,0.00,NE,51,0.0,5.4,86,0.00,,---,0.00,VWS V13.01,2013-06-06 11:28:00,
2013-06-06 07:33:00,52.0,48.2,0.00,NNE,24,0.0,3.6,87,0.00,,---,0.00,VWS V13.01,2013-06-06 11:33:00,
2013-06-06 07:38:00,52.0,48.2,0.00,NNE,20,4.0,6.3,87,0.00,,---,0.00,VWS V13.01,2013-06-06 11:38:00,
2013-06-06 07:43:00,52.0,48.5,0.00,NNE,28,0.0,5.4,88,0.00,,---,0.00,VWS V13.01,2013-06-06 11:43:00,
2013-06-06 07:49:00,52.2,49.0,0.00,ESE,108,0.0,5.4,89,0.00,,---,0.00,VWS V13.01,2013-06-06 11:49:00,
2013-06-06 07:54:00,52.2,49.0,0.00,ENE,63,0.0,0.0,89,0.00,,---,0.00,VWS V13.01,2013-06-06 11:54:00,
2013-06-06 07:59:00,52.2,49.0,0.00,NNE,16,0.0,3.6,89,0.00,,---,0.00,VWS V13.01,2013-06-06 11:59:00,
2013-06-06 08:04:00,52.2,49.0,0.00,ENE,62,0.0,0.0,89,0.00,,---,0.00,VWS V13.01,2013-06-06 12:04:00,
2013-06-06 08:09:00,52.3,49.2,0.00,NE,41,3.6,3.6,89,0.00,,---,0.00,VWS V13.01,2013-06-06 12:09:00,
2013-06-06 08:14:00,52.3,49.2,0.00,ESE,114,0.0,5.4,89,0.00,,---,0.00,VWS V13.01,2013-06-06 12:14:00,
2013-06-06 08:19:00,52.3,49.2,0.00,NE,54,0.0,5.4,89,0.00,,---,0.00,VWS V13.01,2013-06-06 12:19:00,
2013-06-06 08:24:00,52.3,49.2,0.00,NE,48,0.0,0.0,89,0.00,,---,0.00,VWS V13.01,2013-06-06 12:24:00,
2013-06-06 08:30:00,52.3,49.2,0.00,ENE,57,0.0,0.0,89,0.00,,---,0.00,VWS V13.01,2013-06-06 12:30:00,
2013-06-06 08:35:00,52.5,49.7,0.00,ENE,60,0.0,0.0,90,0.00,,---,0.00,VWS V13.01,2013-06-06 12:35:00,
2013-06-06 08:40:00,52.5,49.7,0.00,ENE,65,0.0,0.0,90,0.00,,---,0.00,VWS V13.01,2013-06-06 12:40:00,
2013-06-06 08:45:00,52.5,50.0,0.00,NE,54,2.2,2.2,91,0.00,,---,0.00,VWS V13.01,2013-06-06 12:45:00,
2013-06-06 08:50:00,52.5,50.0,0.00,ESE,106,3.6,5.8,91,0.00,,---,0.00,VWS V13.01,2013-06-06 12:50:00,
2013-06-06 08:55:00,52.7,50.2,0.00,ENE,67,4.0,4.0,91,0.00,,---,0.00,VWS V13.01,2013-06-06 12:55:00,
2013-06-06 09:00:00,52.7,50.2,0.00,SE,135,0.0,0.0,91,0.00,,---,0.00,VWS V13.01,2013-06-06 13:00:00,
2013-06-06 09:05:00,52.9,50.6,0.00,East,92,0.0,0.0,92,0.00,,---,0.00,VWS V13.01,2013-06-06 13:05:00,
2013-06-06 09:10:00,52.9,50.6,0.00,NE,56,3.6,4.0,92,0.00,,---,0.00,VWS V13.01,2013-06-06 13:10:00,
2013-06-06 09:15:00,52.9,50.6,0.00,NE,40,0.0,4.0,92,0.00,,---,0.00,VWS V13.01,2013-06-06 13:15:00,
2013-06-06 09:21:00,53.1,51.1,0.00,ESE,102,4.0,4.5,93,0.00,,---,0.00,VWS V13.01,2013-06-06 13:21:00,
2013-06-06 09:26:00,53.1,51.1,0.00,ENE,77,0.0,4.5,93,0.00,,---,0.00,VWS V13.01,2013-06-06 13:26:00,
2013-06-06 09:31:00,53.1,51.1,0.00,ENE,63,0.0,4.0,93,0.00,,---,0.00,VWS V13.01,2013-06-06 13:31:00,
2013-06-06 09:36:00,53.1,51.1,0.00,SE,125,0.0,4.0,93,0.00,,---,0.00,VWS V13.01,2013-06-06 13:36:00,
2013-06-06 09:41:00,53.2,51.3,0.00,ESE,113,0.0,5.4,93,0.00,,---,0.00,VWS V13.01,2013-06-06 13:41:00,
2013-06-06 09:46:00,53.2,51.6,0.00,SE,137,0.0,5.4,94,0.00,,---,0.00,VWS V13.01,2013-06-06 13:46:00,
2013-06-06 09:51:00,53.2,51.6,0.00,ENE,76,0.0,0.0,94,0.00,,---,0.00,VWS V13.01,2013-06-06 13:51:00,
2013-06-06 09:57:00,53.4,51.7,0.00,SSE,152,4.0,4.0,94,0.00,,---,0.00,VWS V13.01,2013-06-06 13:57:00,
2013-06-06 10:02:00,53.6,51.9,0.00,ENE,68,0.0,0.0,94,0.00,,---,0.00,VWS V13.01,2013-06-06 14:02:00,
2013-06-06 10:07:00,53.6,51.9,0.00,East,90,0.0,0.0,94,0.00,,---,0.00,VWS V13.01,2013-06-06 14:07:00,
2013-06-06 10:12:00,53.8,52.1,0.00,ENE,61,0.0,0.0,94,0.00,,---,0.00,VWS V13.01,2013-06-06 14:12:00,
2013-06-06 10:17:00,53.8,52.1,0.00,ENE,73,3.6,3.6,94,0.00,,---,0.00,VWS V13.01,2013-06-06 14:17:00,
2013-06-06 10:23:00,54.0,52.3,0.00,ENE,73,5.4,5.4,94,0.00,,---,0.00,VWS V13.01,2013-06-06 14:23:00,
2013-06-06 10:28:00,54.0,52.3,0.00,ESE,103,0.0,5.4,94,0.00,,---,0.00,VWS V13.01,2013-06-06 14:28:00,
2013-06-06 10:33:00,54.1,52.5,0.00,ENE,62,0.0,4.0,94,0.00,,---,0.00,VWS V13.01,2013-06-06 14:33:00,
2013-06-06 10:38:00,54.3,52.6,0.00,East,91,3.6,4.0,94,0.00,,---,0.00,VWS V13.01,2013-06-06 14:38:00,
2013-06-06 10:43:00,54.5,52.8,0.00,NE,49,0.0,3.6,94,0.00,,---,0.00,VWS V13.01,2013-06-06 14:43:00,
2013-06-06 10:49:00,54.5,53.1,0.00,NE,54,0.0,3.6,95,0.00,,---,0.00,VWS V13.01,2013-06-06 14:49:00,
2013-06-06 10:54:00,54.7,53.3,0.00,ENE,65,0.0,4.0,95,0.00,,---,0.00,VWS V13.01,2013-06-06 14:54:00,
2013-06-06 10:59:00,54.7,53.3,0.00,East,90,0.0,4.9,95,0.00,,---,0.00,VWS V13.01,2013-06-06 14:59:00,
2013-06-06 11:04:00,54.9,53.5,0.00,ENE,57,0.0,0.0,95,0.00,,---,0.00,VWS V13.01,2013-06-06 15:04:00,
2013-06-06 11:10:00,54.9,53.5,0.00,ENE,73,4.0,6.7,95,0.00,,---,0.00,VWS V13.01,2013-06-06 15:10:00,
2013-06-06 11:15:00,55.0,53.6,0.00,NNE,21,0.0,4.0,95,0.00,,---,0.00,VWS V13.01,2013-06-06 15:15:00,
2013-06-06 11:20:00,55.0,53.6,0.00,NNE,31,0.0,0.0,95,0.00,,---,0.00,VWS V13.01,2013-06-06 15:20:00,
2013-06-06 11:25:00,55.2,53.8,0.00,NE,43,2.2,3.6,95,0.00,,---,0.00,VWS V13.01,2013-06-06 15:25:00,
2013-06-06 11:30:00,55.4,54.0,0.00,ENE,65,0.0,0.0,95,0.00,,---,0.00,VWS V13.01,2013-06-06 15:30:00,
2013-06-06 11:35:00,55.6,54.2,0.00,ESE,103,0.0,3.1,95,0.00,,---,0.00,VWS V13.01,2013-06-06 15:35:00,
2013-06-06 11:40:00,55.9,54.5,0.00,NE,38,3.1,4.0,95,0.00,,---,0.00,VWS V13.01,2013-06-06 15:40:00,
2013-06-06 11:46:00,56.1,54.7,0.00,ESE,111,0.0,4.0,95,0.00,,---,0.00,VWS V13.01,2013-06-06 15:46:00,
2013-06-06 11:51:00,56.3,54.9,0.00,ESE,115,0.0,3.1,95,0.00,,---,0.00,VWS V13.01,2013-06-06 15:51:00,
2013-06-06 11:56:00,56.3,54.9,0.00,ESE,116,0.0,5.4,95,0.00,,---,0.00,VWS V13.01,2013-06-06 15:56:00,
2013-06-06 12:01:00,56.3,54.9,0.00,ESE,108,0.0,3.1,95,0.00,,---,0.00,VWS V13.01,2013-06-06 16:01:00,
2013-06-06 12:06:00,56.5,55.1,0.00,East,83,0.0,3.6,95,0.00,,---,0.00,VWS V13.01,2013-06-06 16:06:00,
2013-06-06 12:11:00,56.7,55.5,0.00,SE,136,5.4,5.4,96,0.00,,---,0.00,VWS V13.01,2013-06-06 16:11:00,
2013-06-06 12:16:00,56.8,55.7,0.00,SE,124,0.0,5.8,96,0.00,,---,0.00,VWS V13.01,2013-06-06 16:16:00,
2013-06-06 12:21:00,56.8,55.7,0.00,SE,135,5.4,5.4,96,0.00,,---,0.00,VWS V13.01,2013-06-06 16:21:00,
2013-06-06 12:26:00,57.0,55.9,0.00,SE,135,4.0,6.3,96,0.00,,---,0.00,VWS V13.01,2013-06-06 16:26:00,
2013-06-06 12:32:00,57.2,56.1,0.00,SE,137,3.1,4.0,96,0.00,,---,0.00,VWS V13.01,2013-06-06 16:32:00,
2013-06-06 12:38:00,57.2,56.1,0.00,ENE,57,3.1,4.0,96,0.00,,---,0.00,VWS V13.01,2013-06-06 16:38:00,
2013-06-06 12:43:00,57.2,56.4,0.00,ESE,122,0.0,4.0,97,0.00,,---,0.00,VWS V13.01,2013-06-06 16:43:00,
2013-06-06 12:48:00,57.4,56.5,0.00,ESE,120,0.0,4.0,97,0.00,,---,0.00,VWS V13.01,2013-06-06 16:48:00,
2013-06-06 12:53:00,57.6,56.7,0.00,SE,129,0.0,0.0,97,0.00,,---,0.00,VWS V13.01,2013-06-06 16:53:00,
2013-06-06 12:58:00,57.9,57.1,0.00,East,83,0.0,4.0,97,0.00,,---,0.00,VWS V13.01,2013-06-06 16:58:00,
2013-06-06 13:03:00,58.1,57.3,0.00,ESE,111,3.1,3.6,97,0.00,,---,0.00,VWS V13.01,2013-06-06 17:03:00,
2013-06-06 13:08:00,58.1,57.3,0.00,SE,130,0.0,5.4,97,0.00,,---,0.00,VWS V13.01,2013-06-06 17:08:00,
2013-06-06 13:13:00,58.3,57.4,0.00,SE,128,3.1,7.6,97,0.00,,---,0.00,VWS V13.01,2013-06-06 17:13:00,
2013-06-06 13:18:00,58.5,57.3,0.00,SE,143,4.9,7.6,96,0.00,,---,0.00,VWS V13.01,2013-06-06 17:18:00,
2013-06-06 13:23:00,58.5,57.3,0.00,ESE,115,3.6,7.6,96,0.00,,---,0.00,VWS V13.01,2013-06-06 17:23:00,
2013-06-06 13:29:00,58.6,57.5,0.00,ESE,119,3.1,7.6,96,0.00,,---,0.00,VWS V13.01,2013-06-06 17:29:00,
2013-06-06 13:34:00,58.8,57.4,0.00,ESE,118,0.0,6.3,95,0.00,,---,0.00,VWS V13.01,2013-06-06 17:34:00,
2013-06-06 13:39:00,58.6,56.9,0.00,ESE,109,5.4,6.3,94,0.00,,---,0.00,VWS V13.01,2013-06-06 17:39:00,
2013-06-06 13:44:00,58.6,56.9,0.00,ESE,113,0.0,4.9,94,0.00,,---,0.00,VWS V13.01,2013-06-06 17:44:00,
2013-06-06 13:49:00,58.6,56.9,0.00,SE,133,3.6,6.3,94,0.00,,---,0.00,VWS V13.01,2013-06-06 17:49:00,
2013-06-06 13:54:00,58.5,56.7,0.00,SSE,166,3.1,4.0,94,0.00,,---,0.00,VWS V13.01,2013-06-06 17:54:00,
2013-06-06 13:59:00,58.3,56.3,0.00,ESE,119,2.7,10.1,93,0.00,,---,0.00,VWS V13.01,2013-06-06 17:59:00,
2013-06-06 14:05:00,58.3,56.3,0.00,ESE,111,2.2,6.3,93,0.00,,---,0.00,VWS V13.01,2013-06-06 18:05:00,
2013-06-06 14:10:00,58.1,56.1,0.00,SSE,159,3.6,3.6,93,0.00,,---,0.00,VWS V13.01,2013-06-06 18:10:00,
2013-06-06 14:15:00,58.1,56.4,0.00,SSW,204,3.1,4.9,94,0.00,,---,0.00,VWS V13.01,2013-06-06 18:15:00,
2013-06-06 14:20:00,58.1,56.4,0.00,ESE,107,3.1,5.4,94,0.00,,---,0.00,VWS V13.01,2013-06-06 18:20:00,
2013-06-06 14:26:00,58.1,56.4,0.00,East,90,0.0,6.3,94,0.00,,---,0.00,VWS V13.01,2013-06-06 18:26:00,
2013-06-06 14:31:00,58.1,56.4,0.00,SSE,149,0.0,5.4,94,0.00,,---,0.00,VWS V13.01,2013-06-06 18:31:00,
2013-06-06 14:36:00,58.1,56.4,0.00,SE,137,3.6,6.3,94,0.00,,---,0.00,VWS V13.01,2013-06-06 18:36:00,
2013-06-06 14:42:00,58.1,56.4,0.00,ESE,115,6.3,6.3,94,0.00,,---,0.00,VWS V13.01,2013-06-06 18:42:00,
2013-06-06 14:47:00,58.1,56.4,0.00,ESE,122,3.6,7.6,94,0.00,,---,0.00,VWS V13.01,2013-06-06 18:47:00,
2013-06-06 14:52:00,57.9,56.2,0.00,SSE,149,3.1,8.1,94,0.00,,---,0.00,VWS V13.01,2013-06-06 18:52:00,
2013-06-06 14:58:00,57.9,56.2,0.00,ESE,122,5.4,8.1,94,0.00,,---,0.00,VWS V13.01,2013-06-06 18:58:00,
2013-06-06 15:03:00,57.7,55.7,0.00,SE,142,0.0,6.3,93,0.00,,---,0.00,VWS V13.01,2013-06-06 19:03:00,
2013-06-06 15:08:00,57.7,55.7,0.00,East,88,2.2,6.3,93,0.00,,---,0.00,VWS V13.01,2013-06-06 19:08:00,
2013-06-06 15:13:00,57.6,55.6,0.00,SSE,148,0.0,4.9,93,0.00,,---,0.00,VWS V13.01,2013-06-06 19:13:00,
2013-06-06 15:18:00,57.6,55.6,0.00,SW,226,0.0,6.3,93,0.00,,---,0.00,VWS V13.01,2013-06-06 19:18:00,
2013-06-06 15:23:00,57.6,55.6,0.00,SE,132,0.0,0.0,93,0.00,,---,0.00,VWS V13.01,2013-06-06 19:23:00,
2013-06-06 15:28:00,57.6,55.6,0.00,SE,144,0.0,0.0,93,0.00,,---,0.00,VWS V13.01,2013-06-06 19:28:00,
2013-06-06 15:34:00,57.6,55.6,0.00,SE,144,0.0,0.0,93,0.00,,---,0.00,VWS V13.01,2013-06-06 19:34:00,
2013-06-06 15:38:00,57.6,55.6,0.00,SE,144,0.0,0.0,93,0.00,,---,0.00,VWS V13.01,2013-06-06 19:38:00,
2013-06-06 15:43:00,57.6,55.6,0.00,ENE,73,0.0,0.0,93,0.00,,---,0.00,VWS V13.01,2013-06-06 19:43:00,
2013-06-06 15:48:00,57.6,55.6,0.00,NE,49,0.0,0.0,93,0.00,,---,0.00,VWS V13.01,2013-06-06 19:48:00,
2013-06-06 15:54:00,57.4,55.4,0.00,ENE,68,2.7,4.0,93,0.00,,---,0.00,VWS V13.01,2013-06-06 19:54:00,
2013-06-06 15:59:00,57.4,55.4,0.00,NNE,29,0.0,4.0,93,0.00,,---,0.00,VWS V13.01,2013-06-06 19:59:00,
2013-06-06 16:04:00,57.2,55.2,0.00,ENE,65,0.0,0.0,93,0.00,,---,0.00,VWS V13.01,2013-06-06 20:04:00,
2013-06-06 16:09:00,57.2,55.5,0.00,ENE,63,0.0,0.0,94,0.00,,---,0.00,VWS V13.01,2013-06-06 20:09:00,
2013-06-06 16:15:00,57.2,55.5,0.00,East,83,0.0,3.1,94,0.00,,---,0.00,VWS V13.01,2013-06-06 20:15:00,
2013-06-06 16:20:00,57.2,55.5,0.00,East,84,0.0,0.0,94,0.00,,---,0.00,VWS V13.01,2013-06-06 20:20:00,
2013-06-06 16:25:00,57.2,55.5,0.00,NE,44,0.0,5.4,94,0.00,,---,0.00,VWS V13.01,2013-06-06 20:25:00,
2013-06-06 16:30:00,57.2,55.5,0.00,SE,126,0.0,2.7,94,0.00,,---,0.00,VWS V13.01,2013-06-06 20:30:00,
2013-06-06 16:36:00,57.0,55.3,0.00,East,93,0.0,4.9,94,0.00,,---,0.00,VWS V13.01,2013-06-06 20:36:00,
2013-06-06 16:41:00,57.0,55.3,0.00,ENE,74,0.0,2.7,94,0.00,,---,0.00,VWS V13.01,2013-06-06 20:41:00,
2013-06-06 16:46:00,56.8,55.1,0.00,NE,54,3.6,4.9,94,0.00,,---,0.00,VWS V13.01,2013-06-06 20:46:00,
2013-06-06 16:51:00,56.8,55.4,0.00,NE,42,3.6,5.8,95,0.00,,---,0.00,VWS V13.01,2013-06-06 20:51:00,
2013-06-06 16:56:00,56.8,55.4,0.00,NE,42,2.7,5.8,95,0.00,,---,0.00,VWS V13.01,2013-06-06 20:56:00,
2013-06-06 17:01:00,56.8,55.4,0.00,ENE,67,4.0,5.4,95,0.00,,---,0.00,VWS V13.01,2013-06-06 21:01:00,
2013-06-06 17:07:00,56.8,55.4,0.00,East,90,4.0,5.4,95,0.00,,---,0.00,VWS V13.01,2013-06-06 21:07:00,
2013-06-06 17:12:00,56.8,55.7,0.00,NE,51,0.0,4.9,96,0.00,,---,0.00,VWS V13.01,2013-06-06 21:12:00,
2013-06-06 17:17:00,56.8,55.7,0.00,NE,39,2.7,5.4,96,0.00,,---,0.00,VWS V13.01,2013-06-06 21:17:00,
2013-06-06 17:22:00,56.8,55.7,0.00,East,84,4.9,6.3,96,0.00,,---,0.00,VWS V13.01,2013-06-06 21:22:00,
2013-06-06 17:27:00,56.8,55.7,0.00,NE,43,5.8,6.3,96,0.00,,---,0.00,VWS V13.01,2013-06-06 21:27:00,
2013-06-06 17:32:00,56.8,55.7,0.00,East,86,2.2,7.6,96,0.00,,---,0.00,VWS V13.01,2013-06-06 21:32:00,
2013-06-06 17:37:00,57.0,55.9,0.00,SSE,158,4.0,7.6,96,0.00,,---,0.00,VWS V13.01,2013-06-06 21:37:00,
2013-06-06 17:43:00,57.0,55.9,0.00,ESE,104,4.0,5.4,96,0.00,,---,0.00,VWS V13.01,2013-06-06 21:43:00,
2013-06-06 17:48:00,56.8,55.7,0.00,East,89,6.3,7.6,96,0.00,,---,0.00,VWS V13.01,2013-06-06 21:48:00,
2013-06-06 17:53:00,56.8,55.7,0.00,SE,146,6.3,6.3,96,0.00,,---,0.00,VWS V13.01,2013-06-06 21:53:00,
2013-06-06 17:58:00,56.8,55.7,0.00,East,93,3.1,6.3,96,0.00,,---,0.00,VWS V13.01,2013-06-06 21:58:00,
2013-06-06 18:03:00,56.8,55.7,0.00,NE,46,0.0,4.0,96,0.00,,---,0.00,VWS V13.01,2013-06-06 22:03:00,
2013-06-06 18:08:00,56.8,55.7,0.00,SE,132,4.0,8.1,96,0.00,,---,0.00,VWS V13.01,2013-06-06 22:08:00,
2013-06-06 18:13:00,56.8,55.4,0.00,ESE,116,0.0,10.5,95,0.00,,---,0.00,VWS V13.01,2013-06-06 22:13:00,
2013-06-06 18:19:00,56.7,55.2,0.00,SE,130,3.6,10.5,95,0.00,,---,0.00,VWS V13.01,2013-06-06 22:19:00,
2013-06-06 18:24:00,56.7,55.0,0.00,SE,131,5.4,10.1,94,0.00,,---,0.00,VWS V13.01,2013-06-06 22:24:00,
2013-06-06 18:29:00,56.7,55.0,0.00,ESE,117,4.0,10.1,94,0.00,,---,0.00,VWS V13.01,2013-06-06 22:29:00,
2013-06-06 18:34:00,56.5,54.8,0.00,SE,125,3.6,8.3,94,0.00,,---,0.00,VWS V13.01,2013-06-06 22:34:00,
2013-06-06 18:39:00,56.5,54.8,0.00,SE,138,5.8,8.3,94,0.00,,---,0.00,VWS V13.01,2013-06-06 22:39:00,
2013-06-06 18:45:00,56.5,54.8,0.00,SE,136,5.4,8.7,94,0.00,,---,0.00,VWS V13.01,2013-06-06 22:45:00,
2013-06-06 18:50:00,56.5,54.8,0.00,East,101,2.7,4.0,94,0.00,,---,0.00,VWS V13.01,2013-06-06 22:50:00,
2013-06-06 18:55:00,56.5,54.8,0.00,ESE,111,4.5,5.8,94,0.00,,---,0.00,VWS V13.01,2013-06-06 22:55:00,
2013-06-06 19:00:00,56.5,54.8,0.00,SE,127,0.0,3.1,94,0.00,,---,0.00,VWS V13.01,2013-06-06 23:00:00,
2013-06-06 19:05:00,56.5,54.8,0.00,SE,133,6.3,6.3,94,0.00,,---,0.00,VWS V13.01,2013-06-06 23:05:00,
2013-06-06 19:10:00,56.5,54.8,0.00,ESE,111,3.6,3.6,94,0.00,,---,0.00,VWS V13.01,2013-06-06 23:10:00,
2013-06-06 19:15:00,56.5,54.8,0.00,ESE,123,4.9,5.8,94,0.00,,---,0.00,VWS V13.01,2013-06-06 23:15:00,
2013-06-06 19:20:00,56.3,54.6,0.00,SE,135,4.0,4.9,94,0.00,,---,0.00,VWS V13.01,2013-06-06 23:20:00,
2013-06-06 19:26:00,56.3,54.6,0.00,SE,144,2.7,8.1,94,0.00,,---,0.00,VWS V13.01,2013-06-06 23:26:00,
2013-06-06 19:31:00,56.3,54.6,0.00,SSE,151,5.4,5.4,94,0.00,,---,0.00,VWS V13.01,2013-06-06 23:31:00,
2013-06-06 19:36:00,56.5,54.8,0.00,SE,127,4.0,8.1,94,0.00,,---,0.00,VWS V13.01,2013-06-06 23:36:00,
2013-06-06 19:41:00,56.3,54.6,0.00,ESE,112,2.7,7.2,94,0.00,,---,0.00,VWS V13.01,2013-06-06 23:41:00,
2013-06-06 19:46:00,56.3,54.6,0.00,ESE,117,5.4,7.2,94,0.00,,---,0.00,VWS V13.01,2013-06-06 23:46:00,
2013-06-06 19:51:00,56.3,54.6,0.00,SE,133,4.9,5.8,94,0.00,,---,0.00,VWS V13.01,2013-06-06 23:51:00,
2013-06-06 19:56:00,56.3,54.6,0.00,ESE,112,8.1,8.1,94,0.00,,---,0.00,VWS V13.01,2013-06-06 23:56:00,
2013-06-06 20:02:00,56.3,54.6,0.00,East,85,5.8,5.8,94,0.00,,---,0.00,VWS V13.01,2013-06-07 00:02:00,
2013-06-06 20:07:00,56.1,54.4,0.00,SE,136,3.6,5.8,94,0.00,,---,0.00,VWS V13.01,2013-06-07 00:07:00,
2013-06-06 20:13:00,56.1,54.4,0.00,SE,130,5.4,5.8,94,0.00,,---,0.00,VWS V13.01,2013-06-07 00:13:00,
2013-06-06 20:18:00,56.1,54.4,0.00,SE,133,4.9,5.8,94,0.00,,---,0.00,VWS V13.01,2013-06-07 00:18:00,
2013-06-06 20:23:00,56.1,54.4,0.00,East,97,4.9,4.9,94,0.00,,---,0.00,VWS V13.01,2013-06-07 00:23:00,
2013-06-06 20:28:00,55.9,54.2,0.00,East,98,3.1,4.9,94,0.00,,---,0.00,VWS V13.01,2013-06-07 00:28:00,
2013-06-06 20:34:00,55.9,54.2,0.00,SSE,153,3.6,4.0,94,0.00,,---,0.00,VWS V13.01,2013-06-07 00:34:00,
2013-06-06 20:39:00,55.9,54.2,0.00,NE,51,0.0,5.4,94,0.00,,---,0.00,VWS V13.01,2013-06-07 00:39:00,
2013-06-06 20:44:00,55.9,54.2,0.00,East,98,0.0,5.8,94,0.00,,---,0.00,VWS V13.01,2013-06-07 00:44:00,
2013-06-06 20:49:00,55.9,54.2,0.00,ESE,105,0.0,5.8,94,0.00,,---,0.00,VWS V13.01,2013-06-07 00:49:00,
2013-06-06 20:54:00,55.9,54.2,0.00,ENE,67,2.7,5.8,94,0.00,,---,0.00,VWS V13.01,2013-06-07 00:54:00,
2013-06-06 20:59:00,55.8,54.1,0.00,SE,133,4.0,5.8,94,0.00,,---,0.00,VWS V13.01,2013-06-07 00:59:00,
2013-06-06 21:04:00,55.8,54.3,0.00,NE,53,3.6,4.5,95,0.00,,---,0.00,VWS V13.01,2013-06-07 01:04:00,
2013-06-06 21:09:00,55.8,54.3,0.00,ESE,104,0.0,4.9,95,0.00,,---,0.00,VWS V13.01,2013-06-07 01:09:00,
2013-06-06 21:15:00,55.8,54.3,0.00,East,101,2.7,3.6,95,0.00,,---,0.00,VWS V13.01,2013-06-07 01:15:00,
2013-06-06 21:20:00,55.8,54.3,0.00,ENE,74,0.0,0.0,95,0.00,,---,0.00,VWS V13.01,2013-06-07 01:20:00,
2013-06-06 21:25:00,55.8,54.3,0.00,ENE,73,3.1,4.5,95,0.00,,---,0.00,VWS V13.01,2013-06-07 01:25:00,
2013-06-06 21:30:00,55.8,54.3,0.00,ENE,57,0.0,0.0,95,0.00,,---,0.00,VWS V13.01,2013-06-07 01:30:00,
2013-06-06 21:35:00,55.8,54.3,0.00,ENE,76,0.0,4.0,95,0.00,,---,0.00,VWS V13.01,2013-06-07 01:35:00,
2013-06-06 21:40:00,55.8,54.3,0.00,East,80,0.0,0.0,95,0.00,,---,0.00,VWS V13.01,2013-06-07 01:40:00,
2013-06-06 21:45:00,55.8,54.6,0.00,ENE,58,0.0,0.0,96,0.00,,---,0.00,VWS V13.01,2013-06-07 01:45:00,
2013-06-06 21:51:00,55.8,54.6,0.00,ENE,65,0.0,0.0,96,0.00,,---,0.00,VWS V13.01,2013-06-07 01:51:00,
2013-06-06 21:56:00,55.6,54.5,0.00,ENE,71,0.0,0.0,96,0.00,,---,0.00,VWS V13.01,2013-06-07 01:56:00,
2013-06-06 22:01:00,55.6,54.5,0.00,ENE,69,0.0,0.0,96,0.00,,---,0.00,VWS V13.01,2013-06-07 02:01:00,
2013-06-06 22:06:00,55.8,54.6,0.00,ENE,66,0.0,0.0,96,0.00,,---,0.00,VWS V13.01,2013-06-07 02:06:00,
2013-06-06 22:11:00,55.8,54.9,0.00,NE,52,0.0,0.0,97,0.00,,---,0.00,VWS V13.01,2013-06-07 02:11:00,
2013-06-06 22:16:00,55.8,54.9,0.00,ENE,64,0.0,0.0,97,0.00,,---,0.00,VWS V13.01,2013-06-07 02:16:00,
2013-06-06 22:21:00,55.8,54.9,0.00,East,97,0.0,0.0,97,0.00,,---,0.00,VWS V13.01,2013-06-07 02:21:00,
2013-06-06 22:27:00,55.8,54.9,0.00,ENE,57,0.0,0.0,97,0.00,,---,0.00,VWS V13.01,2013-06-07 02:27:00,
2013-06-06 22:32:00,55.8,54.9,0.00,ESE,108,0.0,0.0,97,0.00,,---,0.00,VWS V13.01,2013-06-07 02:32:00,
2013-06-06 22:37:00,55.8,54.9,0.00,ENE,58,0.0,0.0,97,0.00,,---,0.00,VWS V13.01,2013-06-07 02:37:00,
2013-06-06 22:42:00,55.8,54.9,0.00,ENE,70,0.0,0.0,97,0.00,,---,0.00,VWS V13.01,2013-06-07 02:42:00,
2013-06-06 22:47:00,55.8,54.9,0.00,ENE,72,0.0,0.0,97,0.00,,---,0.00,VWS V13.01,2013-06-07 02:47:00,
2013-06-06 22:52:00,55.8,54.9,0.00,NE,52,3.6,4.0,97,0.00,,---,0.00,VWS V13.01,2013-06-07 02:52:00,
2013-06-06 22:57:00,55.6,54.8,0.00,NE,44,3.1,4.0,97,0.00,,---,0.00,VWS V13.01,2013-06-07 02:57:00,
2013-06-06 23:02:00,55.6,55.0,0.00,NE,45,0.0,0.0,98,0.00,,---,0.00,VWS V13.01,2013-06-07 03:02:00,
2013-06-06 23:07:00,55.6,55.0,0.00,ENE,62,0.0,0.0,98,0.00,,---,0.00,VWS V13.01,2013-06-07 03:07:00,
2013-06-06 23:12:00,55.6,55.0,0.00,ENE,71,0.0,0.0,98,0.00,,---,0.00,VWS V13.01,2013-06-07 03:12:00,
2013-06-06 23:17:00,55.8,55.2,0.00,ENE,71,0.0,0.0,98,0.00,,---,0.00,VWS V13.01,2013-06-07 03:17:00,
2013-06-06 23:22:00,55.8,55.2,0.00,ENE,71,0.0,0.0,98,0.00,,---,0.00,VWS V13.01,2013-06-07 03:22:00,
2013-06-06 23:28:00,55.8,55.2,0.00,ENE,71,0.0,0.0,98,0.00,,---,0.00,VWS V13.01,2013-06-07 03:28:00,
2013-06-06 23:33:00,55.8,55.2,0.00,ENE,71,0.0,0.0,98,0.00,,---,0.00,VWS V13.01,2013-06-07 03:33:00,
2013-06-06 23:38:00,55.8,55.2,0.00,ENE,71,0.0,0.0,98,0.00,,---,0.00,VWS V13.01,2013-06-07 03:38:00,
2013-06-06 23:43:00,55.8,55.2,0.00,ENE,71,0.0,0.0,98,0.00,,---,0.00,VWS V13.01,2013-06-07 03:43:00,
2013-06-06 23:48:00,55.8,55.2,0.00,East,81,0.0,0.0,98,0.00,,---,0.00,VWS V13.01,2013-06-07 03:48:00,
2013-06-06 23:54:00,55.6,55.0,0.00,East,81,0.0,0.0,98,0.00,,---,0.00,VWS V13.01,2013-06-07 03:54:00,
2013-06-06 23:59:00,55.6,55.0,0.00,East,81,0.0,0.0,98,0.00,,---,0.00,VWS V13.01,2013-06-07 03:59:00,